| time (UTC) | temp F | wind direction | speed MPH | gust MPH | rain 1hr in | rain 24hr in | rain mn in | humidity % | barometer mb |
| 20260506121522 | 60 | 203 | 7.0 | 19.0 | 0.00 | 0.00 | 0.00 | 82 | 1008.7 |
| 20260506121009 | 60 | 203 | 9.0 | 19.0 | 0.00 | 0.00 | 0.00 | 81 | 1008.6 |
| 20260506120503 | 60 | 232 | 8.0 | 22.0 | 0.00 | 0.00 | 0.00 | 81 | 1008.4 |
| 20260506120025 | 60 | 219 | 12.0 | 21.0 | 0.00 | 0.00 | 0.00 | 82 | 1008.3 |
| 20260506115505 | 60 | 213 | 8.0 | 19.0 | 0.00 | 0.00 | 0.00 | 82 | 1008.3 |
| 20260506115012 | 60 | 198 | 10.0 | 18.0 | 0.00 | 0.00 | 0.00 | 82 | 1008.2 |
| 20260506114521 | 59 | 223 | 8.0 | 16.0 | 0.00 | 0.00 | 0.00 | 82 | 1008.6 |
| 20260506114006 | 59 | 205 | 9.0 | 15.0 | 0.00 | 0.00 | 0.00 | 83 | 1008.6 |
| 20260506113507 | 59 | 227 | 8.0 | 15.0 | 0.00 | 0.00 | 0.00 | 83 | 1008.6 |
| 20260506113019 | 59 | 178 | 7.0 | 15.0 | 0.00 | 0.00 | 0.00 | 83 | 1008.7 |
| 20260506112506 | 59 | 214 | 10.0 | 15.0 | 0.00 | 0.00 | 0.00 | 83 | 1008.8 |
| 20260506112014 | 59 | 213 | 7.0 | 13.0 | 0.00 | 0.00 | 0.00 | 84 | 1008.9 |
| 20260506111522 | 58 | 360 | 6.0 | 14.0 | 0.00 | 0.00 | 0.00 | 84 | 1008.9 |
| 20260506111006 | 58 | 232 | 5.0 | 14.0 | 0.00 | 0.00 | 0.00 | 84 | 1008.8 |
| 20260506110509 | 58 | 166 | 5.0 | 9.0 | 0.00 | 0.00 | 0.00 | 85 | 1008.7 |
| 20260506110026 | 57 | 209 | 2.0 | 8.0 | 0.00 | 0.00 | 0.00 | 86 | 1008.7 |
| 20260506105510 | 57 | 225 | 4.0 | 8.0 | 0.00 | 0.00 | 0.00 | 86 | 1008.8 |
| 20260506105010 | 57 | 236 | 4.0 | 8.0 | 0.00 | 0.00 | 0.00 | 87 | 1008.7 |
| 20260506104510 | 56 | 232 | 3.0 | 10.0 | 0.00 | 0.00 | 0.00 | 88 | 1008.7 |
| 20260506104002 | 54 | 221 | 5.0 | 10.0 | 0.00 | 0.00 | 0.00 | 89 | 1008.7 |
| 20260506103503 | 54 | 217 | 1.0 | 4.0 | 0.00 | 0.00 | 0.00 | 89 | 1008.7 |
| 20260506103022 | 54 | 119 | 1.0 | 4.0 | 0.00 | 0.00 | 0.00 | 89 | 1008.8 |
| 20260506102507 | 53 | 238 | 1.0 | 4.0 | 0.00 | 0.00 | 0.00 | 89 | 1008.8 |
| 20260506102010 | 53 | 238 | 1.0 | 4.0 | 0.00 | 0.00 | 0.00 | 89 | 1008.6 |
| 20260506101519 | 53 | 190 | 1.0 | 3.0 | 0.00 | 0.00 | 0.00 | 89 | 1008.7 |
| 20260506101007 | 53 | 227 | 1.0 | 4.0 | 0.00 | 0.00 | 0.00 | 89 | 1008.7 |
| 20260506100506 | 53 | 243 | 1.0 | 5.0 | 0.00 | 0.00 | 0.00 | 89 | 1008.6 |
| 20260506100031 | 52 | 238 | 2.0 | 5.0 | 0.00 | 0.00 | 0.00 | 89 | 1008.6 |
| 20260506095507 | 52 | 221 | 0.0 | 2.0 | 0.00 | 0.00 | 0.00 | 90 | 1008.6 |
| 20260506095009 | 52 | 325 | 0.0 | 2.0 | 0.00 | 0.00 | 0.00 | 90 | 1008.7 |
| 20260506094524 | 52 | 26 | 1.0 | 2.0 | 0.00 | 0.00 | 0.00 | 89 | 1008.6 |
| 20260506094009 | 52 | 80 | 0.0 | 2.0 | 0.00 | 0.00 | 0.00 | 89 | 1008.6 |
| 20260506093509 | 52 | 221 | 0.0 | 2.0 | 0.00 | 0.00 | 0.00 | 89 | 1008.6 |
| 20260506093013 | 52 | 238 | 1.0 | 2.0 | 0.00 | 0.00 | 0.00 | 89 | 1008.6 |
| 20260506092507 | 52 | 265 | 0.0 | 2.0 | 0.00 | 0.00 | 0.00 | 89 | 1008.5 |
| 20260506092007 | 53 | 221 | 0.0 | 2.0 | 0.00 | 0.00 | 0.00 | 89 | 1008.6 |
| 20260506091519 | 53 | 238 | 0.0 | 2.0 | 0.00 | 0.00 | 0.00 | 88 | 1008.5 |
| 20260506091003 | 53 | 221 | 0.0 | 2.0 | 0.00 | 0.00 | 0.00 | 88 | 1008.7 |
| 20260506090502 | 53 | 238 | 0.0 | 3.0 | 0.00 | 0.00 | 0.00 | 88 | 1008.7 |
| 20260506090006 | 53 | 247 | 0.0 | 3.0 | 0.00 | 0.00 | 0.00 | 88 | 1008.7 |
| 20260506085501 | 53 | 279 | 0.0 | 2.0 | 0.00 | 0.00 | 0.00 | 87 | 1008.6 |
| 20260506085003 | 54 | 298 | 1.0 | 2.0 | 0.00 | 0.00 | 0.00 | 87 | 1008.6 |
| 20260506084504 | 54 | 9 | 0.0 | 2.0 | 0.00 | 0.00 | 0.00 | 87 | 1008.6 |
| 20260506084004 | 54 | 178 | 0.0 | 2.0 | 0.00 | 0.00 | 0.00 | 86 | 1008.6 |
| 20260506083504 | 54 | 51 | 0.0 | 2.0 | 0.00 | 0.00 | 0.00 | 86 | 1008.8 |
| 20260506083011 | 54 | 221 | 0.0 | 2.0 | 0.00 | 0.00 | 0.00 | 86 | 1008.8 |
| 20260506082506 | 54 | 221 | 1.0 | 3.0 | 0.00 | 0.00 | 0.00 | 85 | 1008.7 |
| 20260506082006 | 55 | 243 | 1.0 | 3.0 | 0.00 | 0.00 | 0.00 | 86 | 1008.7 |
| 20260506081521 | 54 | 265 | 2.0 | 3.0 | 0.00 | 0.00 | 0.00 | 84 | 1008.7 |
| 20260506081010 | 55 | 247 | 2.0 | 3.0 | 0.00 | 0.00 | 0.00 | 83 | 1008.7 |
| 20260506080507 | 56 | 265 | 1.0 | 3.0 | 0.00 | 0.00 | 0.00 | 83 | 1008.7 |
| 20260506073506 | 58 | 93 | 1.0 | 4.0 | 0.00 | 0.00 | 0.00 | 78 | 1008.9 |
| 20260506073007 | 58 | 9 | 2.0 | 4.0 | 0.00 | 0.00 | 0.00 | 78 | 1009.1 |
| 20260506072504 | 58 | 243 | 1.0 | 5.0 | 0.00 | 0.00 | 0.00 | 78 | 1009.0 |
| 20260506072004 | 59 | 282 | 1.0 | 5.0 | 0.00 | 0.00 | 0.00 | 77 | 1008.9 |
| 20260506071513 | 59 | 205 | 2.0 | 5.0 | 0.00 | 0.00 | 0.00 | 77 | 1008.9 |
| 20260506071009 | 59 | 178 | 1.0 | 5.0 | 0.00 | 0.00 | 0.00 | 77 | 1008.8 |
| 20260506070504 | 59 | 137 | 2.0 | 5.0 | 0.00 | 0.00 | 0.00 | 77 | 1008.9 |
| 20260506062503 | 60 | 190 | 2.0 | 4.0 | 0.00 | 0.00 | 0.00 | 73 | 1008.7 |
| 20260506062003 | 60 | 212 | 2.0 | 4.0 | 0.00 | 0.00 | 0.00 | 72 | 1008.7 |
| 20260506061511 | 61 | 188 | 2.0 | 5.0 | 0.00 | 0.00 | 0.00 | 72 | 1008.7 |
| 20260506061004 | 61 | 221 | 2.0 | 7.0 | 0.00 | 0.00 | 0.00 | 72 | 1008.8 |
| 20260506060506 | 61 | 232 | 3.0 | 9.0 | 0.00 | 0.00 | 0.00 | 70 | 1008.8 |
| 20260506051003 | 63 | 201 | 8.0 | 15.0 | 0.00 | 0.00 | 0.00 | 67 | 1008.9 |
| 20260506050504 | 63 | 223 | 8.0 | 15.0 | 0.00 | 0.00 | 0.00 | 67 | 1008.9 |
| 20260506045004 | 63 | 196 | 6.0 | 14.0 | 0.00 | 0.00 | 0.00 | 66 | 1008.9 |
| 20260506044518 | 64 | 195 | 6.0 | 14.0 | 0.00 | 0.00 | 0.00 | 66 | 1008.9 |
| 20260506044008 | 64 | 168 | 9.0 | 19.0 | 0.00 | 0.00 | 0.00 | 65 | 1009.0 |
| 20260506043508 | 64 | 208 | 7.0 | 19.0 | 0.00 | 0.00 | 0.00 | 65 | 1008.9 |
| 20260506043026 | 64 | 170 | 10.0 | 21.0 | 0.00 | 0.00 | 0.00 | 65 | 1009.0 |
| 20260506042508 | 64 | 207 | 13.0 | 21.0 | 0.00 | 0.00 | 0.00 | 65 | 1008.9 |
| 20260506042012 | 65 | 236 | 8.0 | 19.0 | 0.00 | 0.00 | 0.00 | 65 | 1008.9 |
| 20260506041523 | 65 | 211 | 9.0 | 19.0 | 0.00 | 0.00 | 0.00 | 65 | 1008.9 |
| 20260506041010 | 65 | 187 | 8.0 | 18.0 | 0.00 | 0.00 | 0.00 | 65 | 1008.8 |
| 20260506040509 | 65 | 196 | 10.0 | 16.0 | 0.00 | 0.00 | 0.00 | 65 | 1008.9 |
| 20260506040008 | 65 | 196 | 9.0 | 18.0 | 0.00 | 0.00 | 0.00 | 65 | 1008.9 |
| 20260506035503 | 65 | 221 | 10.0 | 18.0 | 0.00 | 0.00 | 0.00 | 65 | 1008.9 |
| 20260506035004 | 65 | 202 | 7.0 | 17.0 | 0.00 | 0.00 | 0.00 | 66 | 1008.9 |
| 20260506034512 | 65 | 196 | 8.0 | 22.0 | 0.00 | 0.00 | 0.00 | 65 | 1008.8 |
| 20260506034007 | 66 | 220 | 10.0 | 22.0 | 0.00 | 0.00 | 0.00 | 65 | 1009.0 |
| 20260506033508 | 66 | 196 | 11.0 | 20.0 | 0.00 | 0.00 | 0.00 | 65 | 1008.9 |
| 20260506033028 | 66 | 184 | 9.0 | 14.0 | 0.00 | 0.00 | 0.00 | 66 | 1008.8 |
| 20260506032509 | 66 | 194 | 7.0 | 12.0 | 0.00 | 0.00 | 0.00 | 66 | 1008.7 |
| 20260506032009 | 66 | 182 | 6.0 | 11.0 | 0.00 | 0.00 | 0.00 | 66 | 1008.8 |
| 20260506031529 | 66 | 217 | 6.0 | 12.0 | 0.00 | 0.00 | 0.00 | 66 | 1008.8 |
| 20260506031009 | 66 | 234 | 6.0 | 14.0 | 0.00 | 0.00 | 0.00 | 66 | 1008.9 |
| 20260506030507 | 67 | 203 | 8.0 | 14.0 | 0.00 | 0.00 | 0.00 | 65 | 1008.8 |
| 20260506030025 | 66 | 212 | 8.0 | 15.0 | 0.00 | 0.00 | 0.00 | 66 | 1008.8 |
| 20260506025511 | 66 | 225 | 9.0 | 17.0 | 0.00 | 0.00 | 0.00 | 67 | 1008.8 |
| 20260506025011 | 67 | 225 | 6.0 | 17.0 | 0.00 | 0.00 | 0.00 | 67 | 1008.6 |
| 20260506024537 | 67 | 194 | 7.0 | 15.0 | 0.00 | 0.00 | 0.00 | 67 | 1008.7 |
| 20260506024004 | 67 | 186 | 6.0 | 11.0 | 0.00 | 0.00 | 0.00 | 68 | 1008.7 |
| 20260506023504 | 67 | 175 | 5.0 | 13.0 | 0.00 | 0.00 | 0.00 | 68 | 1008.6 |
| 20260506023015 | 67 | 221 | 7.0 | 14.0 | 0.00 | 0.00 | 0.00 | 68 | 1008.6 |
| 20260506022506 | 66 | 209 | 6.0 | 14.0 | 0.00 | 0.00 | 0.00 | 69 | 1008.5 |
| 20260506022013 | 66 | 148 | 6.0 | 12.0 | 0.00 | 0.00 | 0.00 | 70 | 1008.6 |
| 20260506021522 | 66 | 212 | 6.0 | 16.0 | 0.00 | 0.00 | 0.00 | 71 | 1008.8 |
| 20260506021007 | 66 | 210 | 7.0 | 16.0 | 0.00 | 0.00 | 0.00 | 72 | 1008.8 |
| 20260506020508 | 65 | 224 | 7.0 | 11.0 | 0.00 | 0.00 | 0.00 | 73 | 1009.0 |
| 20260506020025 | 66 | 219 | 3.0 | 7.0 | 0.00 | 0.00 | 0.00 | 72 | 1008.9 |
| 20260506015511 | 66 | 265 | 3.0 | 7.0 | 0.00 | 0.00 | 0.00 | 72 | 1008.9 |
| 20260506015011 | 66 | 280 | 1.0 | 3.0 | 0.00 | 0.00 | 0.00 | 72 | 1008.6 |
| 20260506014527 | 66 | 282 | 1.0 | 3.0 | 0.00 | 0.00 | 0.00 | 71 | 1008.5 |
| 20260506014011 | 66 | 265 | 0.0 | 3.0 | 0.00 | 0.00 | 0.00 | 69 | 1008.3 |
| 20260506013508 | 67 | 178 | 0.0 | 7.0 | 0.00 | 0.00 | 0.00 | 67 | 1008.2 |
| 20260506013031 | 67 | 265 | 2.0 | 9.0 | 0.00 | 0.00 | 0.00 | 66 | 1008.2 |
| 20260506012505 | 67 | 236 | 3.0 | 9.0 | 0.00 | 0.00 | 0.00 | 68 | 1008.3 |
| 20260506012007 | 67 | 219 | 5.0 | 8.0 | 0.00 | 0.00 | 0.00 | 68 | 1008.1 |
| 20260506011541 | 67 | 210 | 4.0 | 7.0 | 0.00 | 0.00 | 0.00 | 69 | 1007.9 |
| 20260506011007 | 67 | 194 | 4.0 | 7.0 | 0.00 | 0.00 | 0.00 | 68 | 1007.8 |
| 20260506010511 | 67 | 219 | 5.0 | 7.0 | 0.00 | 0.00 | 0.00 | 67 | 1007.9 |
| 20260506010023 | 67 | 219 | 3.0 | 5.0 | 0.00 | 0.00 | 0.00 | 69 | 1007.8 |
| 20260506005509 | 67 | 265 | 1.0 | 5.0 | 0.00 | 0.00 | 0.00 | 67 | 1007.8 |
| 20260506005008 | 68 | 243 | 2.0 | 5.0 | 0.00 | 0.00 | 0.00 | 67 | 1007.8 |
| 20260506004526 | 68 | 265 | 3.0 | 5.0 | 0.00 | 0.00 | 0.00 | 64 | 1007.8 |
| 20260506004010 | 68 | 178 | 3.0 | 5.0 | 0.00 | 0.00 | 0.00 | 66 | 1007.8 |
| 20260506003512 | 68 | 221 | 0.0 | 3.0 | 0.00 | 0.00 | 0.00 | 65 | 1007.6 |
| 20260506003013 | 68 | 67 | 1.0 | 3.0 | 0.00 | 0.00 | 0.00 | 64 | 1007.7 |
| 20260506002504 | 69 | 247 | 0.0 | 6.0 | 0.00 | 0.00 | 0.00 | 64 | 1007.9 |
| 20260506002002 | 69 | 9 | 3.0 | 6.0 | 0.00 | 0.00 | 0.00 | 62 | 1007.9 |
| 20260506001504 | 69 | 216 | 3.0 | 6.0 | 0.00 | 0.00 | 0.00 | 63 | 1007.9 |
| 20260506001006 | 70 | 221 | 1.0 | 7.0 | 0.00 | 0.00 | 0.00 | 60 | 1007.7 |
| 20260506000506 | 70 | 163 | 3.0 | 7.0 | 0.00 | 0.00 | 0.00 | 58 | 1007.6 |
| 20260506000002 | 70 | 238 | 2.0 | 8.0 | 0.00 | 0.00 | 0.00 | 61 | 1007.5 |
| 20260505235502 | 70 | 30 | 2.0 | 8.0 | 0.00 | 0.00 | 0.00 | 60 | 1007.5 |
| 20260505235003 | 70 | 141 | 3.0 | 6.0 | 0.00 | 0.00 | 0.00 | 60 | 1007.6 |
| 20260505234538 | 70 | 170 | 2.0 | 5.0 | 0.00 | 0.00 | 0.00 | 61 | 1007.5 |
| 20260505234005 | 70 | 178 | 2.0 | 4.0 | 0.00 | 0.00 | 0.00 | 62 | 1007.4 |
| 20260505233502 | 70 | 93 | 2.0 | 10.0 | 0.00 | 0.00 | 0.00 | 61 | 1007.2 |
| 20260505233028 | 70 | 9 | 2.0 | 10.0 | 0.00 | 0.00 | 0.00 | 60 | 1007.0 |
| 20260505232505 | 70 | 43 | 3.0 | 8.0 | 0.00 | 0.00 | 0.00 | 60 | 1006.9 |
| 20260505232004 | 70 | 9 | 3.0 | 9.0 | 0.00 | 0.00 | 0.00 | 59 | 1006.7 |
| 20260505231514 | 71 | 32 | 3.0 | 13.0 | 0.00 | 0.00 | 0.00 | 59 | 1006.8 |
| 20260505231006 | 71 | 71 | 5.0 | 24.0 | 0.00 | 0.00 | 0.00 | 56 | 1006.9 |
| 20260505230501 | 72 | 53 | 8.0 | 24.0 | 0.00 | 0.00 | 0.00 | 55 | 1006.9 |
| 20260505230008 | 74 | 50 | 7.0 | 19.0 | 0.00 | 0.00 | 0.00 | 52 | 1006.4 |
| 20260505225505 | 75 | 321 | 6.0 | 19.0 | 0.00 | 0.00 | 0.00 | 47 | 1006.4 |
| 20260505225009 | 76 | 334 | 9.0 | 26.0 | 0.00 | 0.00 | 0.00 | 45 | 1006.4 |
| 20260505224538 | 77 | 209 | 14.0 | 30.0 | 0.00 | 0.00 | 0.00 | 45 | 1005.4 |
| 20260505224003 | 77 | 211 | 14.0 | 30.0 | 0.00 | 0.00 | 0.00 | 45 | 1005.2 |
| 20260505223513 | 77 | 221 | 14.0 | 25.0 | 0.00 | 0.00 | 0.00 | 45 | 1004.9 |
| 20260505223005 | 78 | 237 | 12.0 | 25.0 | 0.00 | 0.00 | 0.00 | 43 | 1004.7 |
| 20260505222505 | 79 | 238 | 14.0 | 26.0 | 0.00 | 0.00 | 0.00 | 41 | 1004.6 |
| 20260505222005 | 80 | 211 | 15.0 | 26.0 | 0.00 | 0.00 | 0.00 | 38 | 1004.5 |
| 20260505221510 | 81 | 210 | 16.0 | 31.0 | 0.00 | 0.00 | 0.00 | 32 | 1004.4 |
| 20260505221006 | 81 | 234 | 16.0 | 35.0 | 0.00 | 0.00 | 0.00 | 31 | 1004.5 |
| 20260505220507 | 81 | 232 | 17.0 | 35.0 | 0.00 | 0.00 | 0.00 | 30 | 1004.2 |
| 20260505220015 | 81 | 177 | 20.0 | 43.0 | 0.00 | 0.00 | 0.00 | 29 | 1003.9 |
| 20260505215505 | 81 | 200 | 13.0 | 43.0 | 0.00 | 0.00 | 0.00 | 30 | 1004.2 |
| 20260505215007 | 81 | 212 | 14.0 | 35.0 | 0.00 | 0.00 | 0.00 | 30 | 1004.2 |
| 20260505214504 | 81 | 185 | 18.0 | 35.0 | 0.00 | 0.00 | 0.00 | 30 | 1004.2 |
| 20260505214003 | 82 | 198 | 13.0 | 31.0 | 0.00 | 0.00 | 0.00 | 30 | 1004.1 |
| 20260505213506 | 82 | 208 | 18.0 | 33.0 | 0.00 | 0.00 | 0.00 | 29 | 1004.2 |
| 20260505213006 | 83 | 213 | 18.0 | 33.0 | 0.00 | 0.00 | 0.00 | 30 | 1004.2 |
| 20260505212509 | 83 | 219 | 17.0 | 30.0 | 0.00 | 0.00 | 0.00 | 30 | 1004.0 |
| 20260505212006 | 82 | 247 | 18.0 | 30.0 | 0.00 | 0.00 | 0.00 | 30 | 1004.0 |
| 20260505211518 | 82 | 259 | 16.0 | 33.0 | 0.00 | 0.00 | 0.00 | 30 | 1003.8 |
| 20260505211003 | 82 | 219 | 19.0 | 33.0 | 0.00 | 0.00 | 0.00 | 30 | 1003.7 |
| 20260505210505 | 82 | 207 | 14.0 | 32.0 | 0.00 | 0.00 | 0.00 | 30 | 1003.7 |
| 20260505210014 | 82 | 223 | 13.0 | 33.0 | 0.00 | 0.00 | 0.00 | 31 | 1003.7 |
| 20260505205509 | 82 | 194 | 18.0 | 48.0 | 0.00 | 0.00 | 0.00 | 31 | 1003.7 |
| 20260505205006 | 82 | 219 | 20.0 | 48.0 | 0.00 | 0.00 | 0.00 | 30 | 1003.6 |
| 20260505204519 | 82 | 208 | 18.0 | 43.0 | 0.00 | 0.00 | 0.00 | 31 | 1003.7 |
| 20260505204010 | 82 | 203 | 20.0 | 42.0 | 0.00 | 0.00 | 0.00 | 31 | 1003.6 |
| 20260505203506 | 83 | 223 | 19.0 | 42.0 | 0.00 | 0.00 | 0.00 | 31 | 1003.6 |
| 20260505203008 | 82 | 173 | 12.0 | 36.0 | 0.00 | 0.00 | 0.00 | 31 | 1003.7 |
| 20260505202503 | 83 | 241 | 20.0 | 36.0 | 0.00 | 0.00 | 0.00 | 32 | 1003.7 |
| 20260505202003 | 83 | 219 | 20.0 | 45.0 | 0.00 | 0.00 | 0.00 | 31 | 1003.7 |
| 20260505201506 | 83 | 223 | 24.0 | 47.0 | 0.00 | 0.00 | 0.00 | 31 | 1003.8 |
| 20260505201011 | 84 | 189 | 21.0 | 47.0 | 0.00 | 0.00 | 0.00 | 31 | 1003.8 |
| 20260505200503 | 84 | 215 | 20.0 | 38.0 | 0.00 | 0.00 | 0.00 | 31 | 1003.9 |
| 20260505200009 | 83 | 219 | 18.0 | 38.0 | 0.00 | 0.00 | 0.00 | 32 | 1004.0 |
| 20260505195505 | 83 | 221 | 19.0 | 38.0 | 0.00 | 0.00 | 0.00 | 32 | 1003.9 |
| 20260505195003 | 83 | 215 | 14.0 | 38.0 | 0.00 | 0.00 | 0.00 | 32 | 1004.0 |
| 20260505194517 | 83 | 223 | 17.0 | 41.0 | 0.00 | 0.00 | 0.00 | 31 | 1004.0 |
| 20260505194007 | 83 | 223 | 24.0 | 41.0 | 0.00 | 0.00 | 0.00 | 31 | 1004.2 |
| 20260505193510 | 83 | 225 | 18.0 | 37.0 | 0.00 | 0.00 | 0.00 | 31 | 1004.2 |
| 20260505193025 | 83 | 182 | 12.0 | 38.0 | 0.00 | 0.00 | 0.00 | 31 | 1004.2 |
| 20260505192507 | 83 | 156 | 13.0 | 38.0 | 0.00 | 0.00 | 0.00 | 31 | 1004.2 |
| 20260505192010 | 83 | 221 | 17.0 | 37.0 | 0.00 | 0.00 | 0.00 | 31 | 1004.3 |
| 20260505191507 | 83 | 232 | 20.0 | 37.0 | 0.00 | 0.00 | 0.00 | 30 | 1004.2 |
| 20260505191007 | 83 | 213 | 11.0 | 33.0 | 0.00 | 0.00 | 0.00 | 31 | 1004.1 |
| 20260505190503 | 83 | 219 | 22.0 | 37.0 | 0.00 | 0.00 | 0.00 | 31 | 1004.2 |
| 20260505190007 | 83 | 167 | 20.0 | 39.0 | 0.00 | 0.00 | 0.00 | 33 | 1004.3 |
| 20260505185514 | 82 | 231 | 26.0 | 39.0 | 0.00 | 0.00 | 0.00 | 34 | 1004.4 |
| 20260505185004 | 82 | 191 | 19.0 | 28.0 | 0.00 | 0.00 | 0.00 | 37 | 1004.5 |
| 20260505184519 | 82 | 205 | 16.0 | 29.0 | 0.00 | 0.00 | 0.00 | 37 | 1004.4 |
| 20260505184008 | 83 | 209 | 17.0 | 32.0 | 0.00 | 0.00 | 0.00 | 37 | 1004.4 |
| 20260505183508 | 83 | 157 | 16.0 | 37.0 | 0.00 | 0.00 | 0.00 | 37 | 1004.5 |
| 20260505183020 | 83 | 227 | 16.0 | 37.0 | 0.00 | 0.00 | 0.00 | 38 | 1004.6 |
| 20260505182507 | 82 | 210 | 16.0 | 35.0 | 0.00 | 0.00 | 0.00 | 35 | 1004.6 |
| 20260505182012 | 81 | 216 | 21.0 | 35.0 | 0.00 | 0.00 | 0.00 | 37 | 1005.1 |
| 20260505181523 | 82 | 219 | 16.0 | 28.0 | 0.00 | 0.00 | 0.00 | 40 | 1004.9 |
| 20260505181012 | 82 | 207 | 16.0 | 30.0 | 0.00 | 0.00 | 0.00 | 38 | 1005.1 |
| 20260505180507 | 81 | 221 | 18.0 | 30.0 | 0.00 | 0.00 | 0.00 | 38 | 1005.2 |
| 20260505180034 | 81 | 141 | 15.0 | 30.0 | 0.00 | 0.00 | 0.00 | 38 | 1005.2 |
| 20260505175503 | 82 | 207 | 19.0 | 31.0 | 0.00 | 0.00 | 0.00 | 38 | 1005.2 |
| 20260505175007 | 82 | 207 | 16.0 | 36.0 | 0.00 | 0.00 | 0.00 | 38 | 1005.2 |
| 20260505174512 | 82 | 246 | 19.0 | 38.0 | 0.00 | 0.00 | 0.00 | 38 | 1005.2 |
| 20260505174011 | 82 | 214 | 18.0 | 38.0 | 0.00 | 0.00 | 0.00 | 38 | 1005.4 |
| 20260505173510 | 82 | 137 | 11.0 | 24.0 | 0.00 | 0.00 | 0.00 | 39 | 1005.3 |
| 20260505173031 | 82 | 198 | 16.0 | 27.0 | 0.00 | 0.00 | 0.00 | 38 | 1005.4 |
| 20260505172509 | 81 | 247 | 15.0 | 33.0 | 0.00 | 0.00 | 0.00 | 38 | 1005.5 |
| 20260505172008 | 82 | 224 | 21.0 | 33.0 | 0.00 | 0.00 | 0.00 | 38 | 1005.5 |
| 20260505171521 | 82 | 221 | 16.0 | 31.0 | 0.00 | 0.00 | 0.00 | 38 | 1005.6 |
| 20260505171007 | 82 | 153 | 19.0 | 31.0 | 0.00 | 0.00 | 0.00 | 37 | 1005.7 |
| 20260505170510 | 82 | 171 | 16.0 | 31.0 | 0.00 | 0.00 | 0.00 | 38 | 1005.5 |
| 20260505170024 | 82 | 196 | 14.0 | 26.0 | 0.00 | 0.00 | 0.00 | 38 | 1005.5 |
| 20260505165507 | 81 | 223 | 16.0 | 26.0 | 0.00 | 0.00 | 0.00 | 39 | 1005.6 |
| 20260505165011 | 80 | 173 | 11.0 | 26.0 | 0.00 | 0.00 | 0.00 | 41 | 1005.7 |
| 20260505164526 | 80 | 158 | 10.0 | 26.0 | 0.00 | 0.00 | 0.00 | 41 | 1005.9 |
| 20260505164009 | 81 | 207 | 9.0 | 26.0 | 0.00 | 0.00 | 0.00 | 42 | 1005.9 |
| 20260505163504 | 80 | 229 | 16.0 | 26.0 | 0.00 | 0.00 | 0.00 | 41 | 1006.0 |
| 20260505163028 | 80 | 221 | 11.0 | 26.0 | 0.00 | 0.00 | 0.00 | 42 | 1006.1 |
| 20260505162504 | 80 | 200 | 14.0 | 27.0 | 0.00 | 0.00 | 0.00 | 43 | 1006.2 |
| 20260505162007 | 80 | 209 | 15.0 | 27.0 | 0.00 | 0.00 | 0.00 | 43 | 1006.3 |
| 20260505161520 | 79 | 146 | 8.0 | 19.0 | 0.00 | 0.00 | 0.00 | 43 | 1006.1 |
| 20260505161007 | 79 | 142 | 11.0 | 25.0 | 0.00 | 0.00 | 0.00 | 43 | 1006.4 |
| 20260505160507 | 80 | 219 | 13.0 | 25.0 | 0.00 | 0.00 | 0.00 | 42 | 1006.6 |
| 20260505153027 | 76 | 153 | 12.0 | 24.0 | 0.00 | 0.00 | 0.00 | 44 | 1007.4 |
| 20260505152509 | 76 | 218 | 9.0 | 25.0 | 0.00 | 0.00 | 0.00 | 45 | 1007.6 |
| 20260505152008 | 75 | 231 | 14.0 | 25.0 | 0.00 | 0.00 | 0.00 | 46 | 1007.7 |
| 20260505151527 | 75 | 205 | 9.0 | 25.0 | 0.00 | 0.00 | 0.00 | 47 | 1007.8 |
| 20260505151009 | 75 | 223 | 16.0 | 25.0 | 0.00 | 0.00 | 0.00 | 47 | 1007.8 |
| 20260505150503 | 74 | 221 | 12.0 | 22.0 | 0.00 | 0.00 | 0.00 | 47 | 1008.0 |
| 20260505140507 | 66 | 225 | 9.0 | 14.0 | 0.00 | 0.00 | 0.00 | 60 | 1008.8 |
| 20260505125008 | 59 | 232 | 6.0 | 16.0 | 0.00 | 0.00 | 0.00 | 67 | 1009.0 |
| 20260505124532 | 59 | 202 | 6.0 | 16.0 | 0.00 | 0.00 | 0.00 | 70 | 1009.1 |
| 20260505124009 | 59 | 236 | 8.0 | 16.0 | 0.00 | 0.00 | 0.00 | 70 | 1009.0 |
| 20260505123504 | 58 | 219 | 8.0 | 16.0 | 0.00 | 0.00 | 0.00 | 71 | 1009.0 |
| 20260505123005 | 58 | 242 | 7.0 | 17.0 | 0.00 | 0.00 | 0.00 | 71 | 1009.0 |
| 20260505122504 | 57 | 221 | 10.0 | 17.0 | 0.00 | 0.00 | 0.00 | 72 | 1009.1 |
| 20260505122003 | 57 | 183 | 7.0 | 19.0 | 0.00 | 0.00 | 0.00 | 74 | 1009.0 |